Regional Weather Roundup
Issued by NWS Mobile, AL

Home | Current Version | Previous Version | Text Only | Print | Product List | Glossary On
Versions: 1 2 3 4 5 6 7 8 9 10 11 12 13 14 15 16 17 18 19 20 21 22 23 24 25 26 27 28 29 30 31 32 33 34 35 36 37 38 39 40 41 42 43 44 45 46 47 48 49 50
000
ASUS44 KMOB 260613
RWRMOB
REGIONAL WEATHER ROUNDUP
NATIONAL WEATHER SERVICE MOBILE AL
100 AM CDT WED JUL 26 2017

NOTE: "FAIR" INDICATES FEW OR NO CLOUDS BELOW 12,000 FEET WITH NO
      SIGNIFICANT WEATHER AND/OR OBSTRUCTIONS TO VISIBILITY.

  * THESE STATIONS ARE PART OF THE UNIVERSITY OF SOUTH ALABAMA
    MESONET AND ARE NOT UNDER NWS OR FAA QUALITY CONTROL.

ALZ061>064-260700-
COASTAL ALABAMA

CITY           SKY/WX    TMP DP  RH WIND       PRES   REMARKS
MOBILE REG APT MOCLDY    75  73  93 CALM      30.12F
6HR MIN TEMP:  75; 6HR MAX TEMP:  79;

BROOKLEY FIELD MOCLDY    78  76  93 NW3       30.12S
6HR MIN TEMP:  78; 6HR MAX TEMP:  83;

USA CAMPUS*      N/A     72  70  94 CALM      30.11S
DOG RIVER*     NOT AVBL


CITY           SKY/WX    TMP DP  RH WIND       PRES   REMARKS
GULF SHORES    CLOUDY    77  77 100 CALM      30.10S

$$

ALZ051>060-260700-
INTERIOR SOUTHWEST AND SOUTH CENTRAL ALABAMA

CITY           SKY/WX    TMP DP  RH WIND       PRES   REMARKS
GREENVILLE     FOG       73  71  93 CALM      30.10S VSB 1/2
6HR MIN TEMP:  73; 6HR MAX TEMP:  76;

EVERGREEN      MOCLDY    73  72  96 CALM      30.11S
6HR MIN TEMP:  73; 6HR MAX TEMP:  78;

ATMORE*        NOT AVBL
ANDALUSIA/OPP  FOG       75  72  90 CALM      30.10S VSB 3/4
6HR MIN TEMP:  75; 6HR MAX TEMP:  79; 6HR PCP:  0.01;

ANDALUSIA*       N/A     72  72 100 CALM      30.11S
FLORALA APT    CLEAR     73  71  93 CALM      30.11F
6HR MIN TEMP:  73; 6HR MAX TEMP:  76; 6HR PCP: TRACE;

FLORALA*         N/A     72  72 100 CALM      30.81F

$$

FLZ001>006-260700-
WESTERN FLORIDA PANHANDLE

CITY           SKY/WX    TMP DP  RH WIND       PRES   REMARKS
PENSACOLA      CLEAR     79  72  79 CALM      30.10S
6HR MIN TEMP:  77; 6HR MAX TEMP:  84; 6HR PCP: TRACE;

NAS PENSACOLA  CLEAR     75  73  93 CALM      30.09F
6HR MIN TEMP:  75; 6HR MAX TEMP:  83;

MILTON         CLEAR     71  71 100 CALM      30.10S
6HR MIN TEMP:  71; 6HR MAX TEMP:  80;

WHTNG S FIELD  PTCLDY    74  72  93 W3        30.10S
6HR MIN TEMP:  74; 6HR MAX TEMP:  84;



CITY           SKY/WX    TMP DP  RH WIND       PRES   REMARKS
JAY*             N/A     72  72 100 S3        30.11S
DUKE FIELD     CLEAR     74  72  95 CALM      30.09F
CRESTVIEW      CLEAR     73  71  93 CALM      30.11S
6HR MIN TEMP:  73; 6HR MAX TEMP:  82; 6HR PCP: TRACE;

VALPARAISO     PTCLDY    76  73  88 N2        30.09S
6HR MIN TEMP:  76; 6HR MAX TEMP:  86;

DESTIN         PTCLDY    81  75  82 NE3       30.09S
6HR MIN TEMP:  81; 6HR MAX TEMP:  88;


$$

MSZ076-079-260700-
INTERIOR SOUTHEAST MISSISSIPPI

CITY           SKY/WX    TMP DP  RH WIND       PRES   REMARKS
LEAKESVILLE*     N/A     75  73  94 CALM      30.12
AGRICOLA*        N/A     73  73 100 CALM      30.11

$$

MARINE OBSERVATIONS

STATION/POSITION TIME  TEMP    WIND        PRES    WAVE
                       AIR SEA DIR/SP/G            HT/PER
                 (UTC) (F)     (DEG/KT/KT) (MB)    (FT/S)
PASCAGOULA       0548          290/  1/  2 1019.4F
PETIT BOIS ISLND 0548          300/  5/  5 1020.1F
GRAND BAY        0430   76     300/  1     1021.0S
KATRINA CUT      0530   80     310/ 10     1020.0R
CEDAR POINT      0530   79     310/  9     1019.6F
E DAUPHIN ISLAND 0500   79     300/ 10/ 11 1019.4R
MIDDLE BAY LIGHT 0530   78     280/ 11     1019.6R
USCG MOBILE BAY  0548          280/  2/  3 1020.3R
STATE DOCKS      0548                      1019.5R
MEAHER PARK      0530   78     290/  2     1019.6F
WEEKS BAY        0445   76                   N/A
FORT MORGAN      0548          310/ 10/ 11   N/A
12 S ORANGE BCH  0550   81 83  340/  8/ 10 1019.0F
PENSACOLA BAY    0548                      1019.5F
64 S DAUPHIN ISL 0550   84 86  280/  6/  6 1019.8F   1/ 4
67 S FORT MORGAN 0530   83     320/  2     1020.0S

$$

SELECTED LOCATIONS ACROSS THE REGION

CITY           SKY/WX    TMP DP  RH WIND       PRES   REMARKS
NEW ORLEANS    CLEAR     81  75  82 SW3       30.11F
GULFPORT       CLEAR     76  75  97 CALM      30.10F
PASCAGOULA AP  CLEAR     73  71  93 CALM      30.11F
PASCAGOULA*      N/A    N/A N/A N/A CALM        N/A
HATTIESBURG    CLOUDY    74  74 100 S3        30.13R
LAUREL         CLOUDY    74  73  97 CALM      30.13S FOG
MERIDIAN       CLEAR     76  75  97 CALM      30.12S
JACKSON        PTCLDY    73  72  96 CALM      30.12S
MONTGOMERY     CLEAR     75  71  87 CALM      30.09S VSB 1/2
TROY           CLEAR     73  73 100 CALM      30.10F
ASHFORD*         N/A     72  72 100 CALM      30.11S
DOTHAN         CLEAR     75  75 100 CALM      30.12F
PANAMA CITY    CLEAR     76  74  93 CALM      30.08F

$$




USA.gov is the U.S. government's official web portal to all federal, state and local government web resources and services.